E1646 Weather Reports


Display with metric or nautical units.
time (UTC)temp
F
wind
direction
speed
MPH
gust
MPH
rain 1hr
in
rain 24hr
in
rain mn
in
humidity
%
barometer
mb
20260504081522 0 0.0 0.0 0.00 0.00 0.00 1012.7
20260504044537 50 266 3.0 11.0 0.00 0.00 0.00 49 1012.2
20260504043028 49 91 4.0 12.0 0.00 0.00 0.00 49 1012.2
20260504041524 50 120 2.0 9.0 0.00 0.00 0.00 48 1012.2
20260504040018 50 219 3.0 8.0 0.00 0.00 0.00 46 1012.1
20260504034519 51 173 3.0 10.0 0.00 0.00 0.00 46 1012.1
20260504033015 50 269 3.0 8.0 0.00 0.00 0.00 47 1012.1
20260504031511 49 152 5.0 10.0 0.00 0.00 0.00 48 1012.1
20260504030030 50 135 3.0 6.0 0.00 0.00 0.00 48 1012.1
20260504024508 50 215 3.0 5.0 0.00 0.00 0.00 47 1012.2
20260504023007 51 153 3.0 6.0 0.00 0.00 0.00 47 1012.3
20260504021505 51 301 2.0 9.0 0.00 0.00 0.00 46 1012.2
20260504020003 51 162 0.0 6.0 0.00 0.00 0.00 46 1012.3
20260504014600 51 229 0.0 5.0 0.00 0.00 0.00 46 1012.2
20260504013109 51 291 2.0 5.0 0.00 0.00 0.00 46 1012.1
20260504011557 51 359 5.0 9.0 0.00 0.00 0.00 46 1012.1
20260504010109 51 325 3.0 11.0 0.00 0.00 0.00 45 1011.9
20260504004610 51 340 4.0 7.0 0.00 0.00 0.00 44 1011.8
20260504003048 52 281 4.0 18.0 0.00 0.00 0.00 43 1011.6
20260504001546 52 336 6.0 12.0 0.00 0.00 0.00 42 1011.3
20260504000044 53 9 7.0 13.0 0.00 0.00 0.00 40 1011.2
20260503234545 53 348 6.0 13.0 0.00 0.00 0.00 39 1011.1
20260503233041 53 328 5.0 12.0 0.00 0.00 0.00 40 1010.9
20260503231537 53 314 3.0 15.0 0.00 0.00 0.00 39 1010.6
20260503230039 53 330 6.0 15.0 0.00 0.00 0.00 38 1010.6
20260503224534 53 340 7.0 17.0 0.00 0.00 0.00 37 1010.5
20260503223032 54 8 10.0 20.0 0.00 0.00 0.00 36 1010.3
20260503221539 55 360 8.0 15.0 0.00 0.00 0.00 34 1010.2
20260503220028 54 315 8.0 17.0 0.00 0.00 0.00 34 1010.2
20260503214527 54 315 11.0 19.0 0.00 0.00 0.00 32 1010.1
20260503213122 54 299 7.0 26.0 0.00 0.00 0.00 31 1010.1
20260503211520 54 29 13.0 25.0 0.00 0.00 0.00 31 1010.1
20260503210016 54 335 10.0 28.0 0.00 0.00 0.00 31 1010.0
20260503204512 54 348 14.0 25.0 0.00 0.00 0.00 31 1010.1
20260503203014 53 349 13.0 28.0 0.00 0.00 0.00 33 1010.1
20260503201506 53 311 8.0 19.0 0.00 0.00 0.00 34 1010.2
20260503200003 52 315 5.0 17.0 0.00 0.00 0.00 38 1010.2
20260503194600 52 1 8.0 22.0 0.00 0.00 0.00 36 1010.5
20260503193100 51 112 12.0 22.0 0.00 0.00 0.00 37 1010.6
20260503191613 51 3 8.0 26.0 0.00 0.00 0.00 40 1010.5
20260503190051 51 359 13.0 22.0 0.00 0.00 0.00 39 1010.6
20260503184555 50 292 11.0 20.0 0.00 0.00 0.00 41 1011.0
20260503183100 49 334 9.0 23.0 0.00 0.00 0.00 42 1010.9
20260503181642 50 20 12.0 25.0 0.00 0.00 0.00 42 1010.9
20260503180042 49 5 11.0 25.0 0.00 0.00 0.00 44 1011.0
20260503174534 47 309 12.0 20.0 0.00 0.00 0.00 47 1011.1
20260503173046 47 320 8.0 27.0 0.00 0.00 0.00 47 1011.4
20260503171528 46 359 7.0 13.0 0.00 0.00 0.00 47 1011.4